Plattsburgh, NY

3:18 PM EST on January 24, 2017 (GMT -0500)
Plattsburgh International

Weather History for KPBG - November, 2013

Change the Weather History Date:

Sunday, November 10, 2013

  Actual Average Record
Temperature  
Mean Temperature 43 °F 39 °F  
Max Temperature 49 °F 48 °F 69 °F (1948)
Min Temperature 36 °F 29 °F 16 °F (1965)
Degree Days  
Heating Degree Days 22 26  
Month to date heating degree days 242 245  
Since 1 July heating degree days 1018 1028  
Cooling Degree Days 0 0  
Month to date cooling degree days 0  
Year to date cooling degree days 346  
Moisture  
Dew Point 35 °F    
Average Humidity 77    
Maximum Humidity 92    
Minimum Humidity 61    
Precipitation  
Precipitation 0.08 in - 1.53 in (1990)
Month to date precipitation 0.34  
Year to date precipitation 29.04  
Sea Level Pressure  
Sea Level Pressure 29.76 in    
Wind  
Wind Speed 5 mph (SSW)    
Max Wind Speed 15 mph    
Max Gust Speed 25 mph    
Visibility 10 miles    
Events Rain    
T = Trace of Precipitation, MM = Missing Value Source: NWS Daily Summary

Daily Weather History Graph

Daily Weather History Graph

Search for Another Location

Airport or City:

Trip Planner

Search our weather history database for the weather conditions in past years. The results will help you decide how hot, cold, wet, or windy it might be!

Date:

Astronomy

Nov. 10, 2013 Rise Set
Actual Time 6:44 AM EST 4:30 PM EST
Civil Twilight 6:12 AM EST 5:02 PM EST
Nautical Twilight 5:37 AM EST 5:37 PM EST
Astronomical Twilight 5:03 AM EST 6:11 PM EST
Moon 12:50 PM EST (11/10) No Moon Set
Length of Visible Light 10h 49m
Length of Day
9h 46m
First Quarter, 55% of the Moon is Illuminated
Nov 10
First Quarter
Nov 17
Full
Nov 25
Last Quarter
Dec 2
New
Dec 9
First Quarter

Hourly Weather History & Observations

Time (EST) Temp. Windchill Dew Point Humidity Pressure Visibility Wind Dir Wind Speed Gust Speed Precip Events Conditions
12:53 AM 37.0 °F 30.4 °F 33.1 °F 86% 29.87 in 10.0 mi South 9.2 mph - 0.00 in Rain Light Rain
1:53 AM 37.0 °F 31.0 °F 34.0 °F 89% 29.83 in 10.0 mi South 8.1 mph - 0.00 in Rain Light Rain
2:07 AM 37.4 °F 30.3 °F 33.8 °F 87% 29.82 in 10.0 mi South 10.4 mph - 0.01 in Rain Light Rain
2:31 AM 37.4 °F 30.3 °F 33.8 °F 87% 29.81 in 10.0 mi South 10.4 mph - 0.01 in Rain Light Rain
2:53 AM 36.0 °F 29.0 °F 34.0 °F 93% 29.81 in 8.0 mi South 9.2 mph - 0.03 in Rain Light Rain
3:11 AM 35.6 °F 28.0 °F 33.8 °F 93% 29.79 in 9.0 mi South 10.4 mph - 0.01 in Rain Light Rain
3:53 AM 37.0 °F 31.6 °F 34.0 °F 89% 29.78 in 10.0 mi South 6.9 mph - 0.03 in Rain Light Rain
4:02 AM 37.4 °F 30.3 °F 35.6 °F 93% 29.77 in 10.0 mi SSE 10.4 mph - 0.00 in Rain Light Rain
4:53 AM 37.0 °F 31.0 °F 35.1 °F 93% 29.76 in 10.0 mi South 8.1 mph - 0.00 in Rain Light Rain
5:53 AM 37.0 °F - 35.1 °F 93% 29.74 in 10.0 mi Calm Calm - 0.00 in   Overcast
6:53 AM 37.0 °F - 36.0 °F 96% 29.73 in 10.0 mi Calm Calm - N/A   Overcast
7:53 AM 37.0 °F - 36.0 °F 96% 29.73 in 9.0 mi Calm Calm - N/A   Overcast
8:53 AM 39.9 °F - 37.0 °F 89% 29.73 in 9.0 mi Calm Calm - 0.01 in Rain Light Rain
9:53 AM 48.0 °F - 41.0 °F 77% 29.70 in 10.0 mi SSW 4.6 mph - 0.00 in   Overcast
10:53 AM 48.0 °F - 37.9 °F 68% 29.70 in 10.0 mi Variable 5.8 mph - N/A   Mostly Cloudy
11:53 AM 48.0 °F - 36.0 °F 63% 29.68 in 10.0 mi SSW 6.9 mph 16.1 mph N/A   Overcast
12:53 PM 44.1 °F 40.1 °F 39.9 °F 85% 29.68 in 10.0 mi SSW 6.9 mph - 0.01 in   Overcast
1:53 PM 45.0 °F 43.5 °F 37.9 °F 76% 29.68 in 10.0 mi Variable 3.5 mph - N/A   Overcast
2:53 PM 46.0 °F 43.1 °F 37.0 °F 71% 29.70 in 10.0 mi Variable 5.8 mph - N/A   Overcast
3:53 PM 45.0 °F 41.2 °F 36.0 °F 71% 29.70 in 10.0 mi Variable 6.9 mph - N/A   Clear
4:53 PM 44.1 °F 42.5 °F 35.1 °F 71% 29.71 in 10.0 mi Variable 3.5 mph - N/A   Partly Cloudy
5:53 PM 43.0 °F 40.3 °F 35.1 °F 74% 29.72 in 10.0 mi SW 4.6 mph - N/A   Mostly Cloudy
6:53 PM 42.1 °F - 36.0 °F 79% 29.74 in 10.0 mi Calm Calm - 0.00 in   Overcast
7:53 PM 41.0 °F 36.4 °F 32.0 °F 70% 29.78 in 10.0 mi WSW 6.9 mph - N/A   Mostly Cloudy
8:53 PM 39.9 °F 36.7 °F 32.0 °F 73% 29.81 in 10.0 mi West 4.6 mph - N/A   Overcast
9:53 PM 39.0 °F 35.7 °F 32.0 °F 76% 29.82 in 10.0 mi Variable 4.6 mph - N/A   Overcast
10:53 PM 37.9 °F 32.1 °F 30.0 °F 73% 29.84 in 10.0 mi West 8.1 mph - N/A   Scattered Clouds
11:53 PM 37.0 °F 29.8 °F 28.9 °F 73% 29.88 in 10.0 mi West 10.4 mph 21.9 mph N/A   Overcast